Year,Month,Day,Hour,Minute,Value (Times are PST for temperature in C)
2008,08,29,00,00,15.80
2008,08,29,00,01,15.80
2008,08,29,00,02,15.80
2008,08,29,00,03,15.80
2008,08,29,00,04,15.80
2008,08,29,00,05,15.80
2008,08,29,00,06,15.80
2008,08,29,00,07,15.80
2008,08,29,00,08,15.80
2008,08,29,00,09,15.80
2008,08,29,00,10,15.80
2008,08,29,00,11,15.80
2008,08,29,00,12,15.80
2008,08,29,00,13,15.80
2008,08,29,00,14,15.80
2008,08,29,00,15,15.80
2008,08,29,00,16,15.80
2008,08,29,00,17,15.80
2008,08,29,00,18,15.80
2008,08,29,00,19,15.80
2008,08,29,00,20,15.80
2008,08,29,00,21,15.80
2008,08,29,00,22,15.80
2008,08,29,00,23,15.80
2008,08,29,00,24,15.80
2008,08,29,00,25,15.80
2008,08,29,00,26,15.90
2008,08,29,00,27,15.90
2008,08,29,00,28,15.90
2008,08,29,00,29,16.00
2008,08,29,00,30,16.10
2008,08,29,00,31,16.10
2008,08,29,00,32,16.00
2008,08,29,00,33,15.90
2008,08,29,00,34,15.90
2008,08,29,00,35,15.90
2008,08,29,00,36,15.90
2008,08,29,00,37,15.90
2008,08,29,00,38,15.90
2008,08,29,00,39,15.90
2008,08,29,00,40,15.90
2008,08,29,00,41,15.90
2008,08,29,00,42,15.90
2008,08,29,00,43,15.90
2008,08,29,00,44,15.90
2008,08,29,00,45,15.90
2008,08,29,00,46,15.90
2008,08,29,00,47,15.90
2008,08,29,00,48,15.90
2008,08,29,00,49,15.90
2008,08,29,00,50,15.90
2008,08,29,00,51,15.90
2008,08,29,00,52,15.90
2008,08,29,00,53,15.90
2008,08,29,00,54,15.90
2008,08,29,00,55,15.90
2008,08,29,00,56,15.90
2008,08,29,00,57,15.90
2008,08,29,00,58,15.90
2008,08,29,00,59,15.90
2008,08,29,01,00,15.80
2008,08,29,01,01,15.80
2008,08,29,01,02,15.80
2008,08,29,01,03,15.80
2008,08,29,01,04,15.80
2008,08,29,01,05,15.80
2008,08,29,01,06,15.80
2008,08,29,01,07,15.80
2008,08,29,01,08,15.80
2008,08,29,01,09,15.80
2008,08,29,01,10,15.80
2008,08,29,01,11,15.80
2008,08,29,01,12,15.80
2008,08,29,01,13,15.80
2008,08,29,01,14,15.80
2008,08,29,01,15,15.80
2008,08,29,01,16,15.80
2008,08,29,01,17,15.80
2008,08,29,01,18,15.80
2008,08,29,01,19,15.80
2008,08,29,01,20,15.80
2008,08,29,01,21,15.80
2008,08,29,01,22,15.80
2008,08,29,01,23,15.80
2008,08,29,01,24,15.80
2008,08,29,01,25,15.80
2008,08,29,01,26,15.80
2008,08,29,01,27,15.80
2008,08,29,01,28,15.80
2008,08,29,01,29,15.80
2008,08,29,01,30,15.80
2008,08,29,01,31,15.90
2008,08,29,01,32,15.90
2008,08,29,01,33,15.90
2008,08,29,01,34,15.90
2008,08,29,01,35,15.90
2008,08,29,01,36,15.90
2008,08,29,01,37,15.90
2008,08,29,01,38,15.90
2008,08,29,01,39,15.90
2008,08,29,01,40,15.90
2008,08,29,01,41,15.90
2008,08,29,01,42,15.90
2008,08,29,01,43,15.80
2008,08,29,01,44,15.80
2008,08,29,01,45,15.80
2008,08,29,01,46,15.80
2008,08,29,01,47,15.80
2008,08,29,01,48,15.80
2008,08,29,01,49,15.80
2008,08,29,01,50,15.80
2008,08,29,01,51,15.80
2008,08,29,01,52,15.80
2008,08,29,01,53,15.80
2008,08,29,01,54,15.80
2008,08,29,01,55,15.80
2008,08,29,01,56,15.80
2008,08,29,01,57,15.80
2008,08,29,01,58,15.80
2008,08,29,01,59,15.80
2008,08,29,02,00,15.80
2008,08,29,02,01,15.80
2008,08,29,02,02,15.80
2008,08,29,02,03,15.80
2008,08,29,02,04,15.80
2008,08,29,02,05,15.80
2008,08,29,02,06,15.80
2008,08,29,02,07,15.80
2008,08,29,02,08,15.80
2008,08,29,02,09,15.80
2008,08,29,02,10,15.80
2008,08,29,02,11,15.80
2008,08,29,02,12,15.80
2008,08,29,02,13,15.80
2008,08,29,02,14,15.80
2008,08,29,02,15,15.80
2008,08,29,02,16,15.80
2008,08,29,02,17,15.80
2008,08,29,02,18,15.80
2008,08,29,02,19,15.80
2008,08,29,02,20,15.80
2008,08,29,02,21,15.80
2008,08,29,02,22,15.80
2008,08,29,02,23,15.80
2008,08,29,02,24,15.80
2008,08,29,02,25,15.80
2008,08,29,02,26,15.80
2008,08,29,02,27,15.80
2008,08,29,02,28,15.80
2008,08,29,02,29,15.80
2008,08,29,02,30,15.80
2008,08,29,02,31,15.80
2008,08,29,02,32,15.80
2008,08,29,02,33,15.80
2008,08,29,02,34,15.80
2008,08,29,02,35,15.80
2008,08,29,02,36,15.80
2008,08,29,02,37,15.80
2008,08,29,02,38,15.80
2008,08,29,02,39,15.80
2008,08,29,02,40,15.80
2008,08,29,02,41,15.80
2008,08,29,02,42,15.80
2008,08,29,02,43,15.70
2008,08,29,02,44,15.70
2008,08,29,02,45,15.70
2008,08,29,02,46,15.70
2008,08,29,02,47,15.70
2008,08,29,02,48,15.70
2008,08,29,02,49,15.70
2008,08,29,02,50,15.70
2008,08,29,02,51,15.70
2008,08,29,02,52,15.70
2008,08,29,02,53,15.70
2008,08,29,02,54,15.70
2008,08,29,02,55,15.70
2008,08,29,02,56,15.70
2008,08,29,02,57,15.70
2008,08,29,02,58,15.70
2008,08,29,02,59,15.70
2008,08,29,03,00,15.70
2008,08,29,03,01,15.70
2008,08,29,03,02,15.70
2008,08,29,03,03,15.70
2008,08,29,03,04,15.70
2008,08,29,03,05,15.70
2008,08,29,03,06,15.70
2008,08,29,03,07,15.70
2008,08,29,03,08,15.70
2008,08,29,03,09,15.70
2008,08,29,03,10,15.70
2008,08,29,03,11,15.70
2008,08,29,03,12,15.60
2008,08,29,03,13,15.60
2008,08,29,03,14,15.60
2008,08,29,03,15,15.60
2008,08,29,03,16,15.60
2008,08,29,03,17,15.60
2008,08,29,03,18,15.60
2008,08,29,03,19,15.60
2008,08,29,03,20,15.60
2008,08,29,03,21,15.60
2008,08,29,03,22,15.60
2008,08,29,03,23,15.60
2008,08,29,03,24,15.60
2008,08,29,03,25,15.50
2008,08,29,03,26,15.50
2008,08,29,03,27,15.50
2008,08,29,03,28,15.50
2008,08,29,03,29,15.50
2008,08,29,03,30,15.50
2008,08,29,03,31,15.50
2008,08,29,03,32,15.50
2008,08,29,03,33,15.50
2008,08,29,03,34,15.50
2008,08,29,03,35,15.50
2008,08,29,03,36,15.50
2008,08,29,03,37,15.40
2008,08,29,03,38,15.40
2008,08,29,03,39,15.40
2008,08,29,03,40,15.40
2008,08,29,03,41,15.40
2008,08,29,03,42,15.40
2008,08,29,03,43,15.40
2008,08,29,03,44,15.40
2008,08,29,03,45,15.40
2008,08,29,03,46,15.30
2008,08,29,03,47,15.30
2008,08,29,03,48,15.30
2008,08,29,03,49,15.30
2008,08,29,03,50,15.30
2008,08,29,03,51,15.30
2008,08,29,03,52,15.30
2008,08,29,03,53,15.30
2008,08,29,03,54,15.30
2008,08,29,03,55,15.30
2008,08,29,03,56,15.30
2008,08,29,03,57,15.30
2008,08,29,03,58,15.30
2008,08,29,03,59,15.30
2008,08,29,04,00,15.30
2008,08,29,04,01,15.30
2008,08,29,04,02,15.30
2008,08,29,04,03,15.30
2008,08,29,04,04,15.30
2008,08,29,04,05,15.30
2008,08,29,04,06,15.30
2008,08,29,04,07,15.30
2008,08,29,04,08,15.30
2008,08,29,04,09,15.30
2008,08,29,04,10,15.30
2008,08,29,04,11,15.30
2008,08,29,04,12,15.30
2008,08,29,04,13,15.20
2008,08,29,04,14,15.20
2008,08,29,04,15,15.20
2008,08,29,04,16,15.20
2008,08,29,04,17,15.20
2008,08,29,04,18,15.20
2008,08,29,04,19,15.20
2008,08,29,04,20,15.20
2008,08,29,04,21,15.20
2008,08,29,04,22,15.20
2008,08,29,04,23,15.20
2008,08,29,04,24,15.20
2008,08,29,04,25,15.10
2008,08,29,04,26,15.10
2008,08,29,04,27,15.10
2008,08,29,04,28,15.10
2008,08,29,04,29,15.10
2008,08,29,04,30,15.10
2008,08,29,04,31,15.10
2008,08,29,04,32,15.10
2008,08,29,04,33,15.10
2008,08,29,04,34,15.10
2008,08,29,04,35,15.10
2008,08,29,04,36,15.10
2008,08,29,04,37,15.10
2008,08,29,04,38,15.10
2008,08,29,04,39,15.10
2008,08,29,04,40,15.10
2008,08,29,04,41,15.10
2008,08,29,04,42,15.10
2008,08,29,04,43,15.10
2008,08,29,04,44,15.10
2008,08,29,04,45,15.10
2008,08,29,04,46,15.10
2008,08,29,04,47,15.10
2008,08,29,04,48,15.10
2008,08,29,04,49,15.10
2008,08,29,04,50,15.10
2008,08,29,04,51,15.10
2008,08,29,04,52,15.10
2008,08,29,04,53,15.10
2008,08,29,04,54,15.10
2008,08,29,04,55,15.10
2008,08,29,04,56,15.10
2008,08,29,04,57,15.00
2008,08,29,04,58,15.00
2008,08,29,04,59,15.00
2008,08,29,05,00,15.00
2008,08,29,05,01,15.00
2008,08,29,05,02,15.00
2008,08,29,05,03,15.00
2008,08,29,05,04,15.00
2008,08,29,05,05,15.00
2008,08,29,05,06,15.00
2008,08,29,05,07,15.00
2008,08,29,05,08,15.00
2008,08,29,05,09,15.00
2008,08,29,05,10,15.00
2008,08,29,05,11,15.00
2008,08,29,05,12,15.00
2008,08,29,05,13,15.00
2008,08,29,05,14,15.00
2008,08,29,05,15,15.00
2008,08,29,05,16,15.00
2008,08,29,05,17,15.00
2008,08,29,05,18,15.00
2008,08,29,05,19,15.00
2008,08,29,05,20,15.00
2008,08,29,05,21,15.00
2008,08,29,05,22,15.00
2008,08,29,05,23,15.00
2008,08,29,05,24,15.00
2008,08,29,05,25,15.00
2008,08,29,05,26,15.00
2008,08,29,05,27,15.00
2008,08,29,05,28,15.00
2008,08,29,05,29,15.00
2008,08,29,05,30,15.00
2008,08,29,05,31,15.00
2008,08,29,05,32,15.00
2008,08,29,05,33,15.00
2008,08,29,05,34,15.00
2008,08,29,05,35,15.00
2008,08,29,05,36,15.00
2008,08,29,05,37,15.00
2008,08,29,05,38,15.00
2008,08,29,05,39,15.00
2008,08,29,05,40,15.10
2008,08,29,05,41,15.10
2008,08,29,05,42,15.10
2008,08,29,05,43,15.00
2008,08,29,05,44,15.00
2008,08,29,05,45,15.00
2008,08,29,05,46,15.00
2008,08,29,05,47,15.00
2008,08,29,05,48,15.00
2008,08,29,05,49,15.00
2008,08,29,05,50,15.00
2008,08,29,05,51,15.00
2008,08,29,05,52,15.00
2008,08,29,05,53,15.00
2008,08,29,05,54,15.00
2008,08,29,05,55,15.00
2008,08,29,05,56,15.00
2008,08,29,05,57,15.00
2008,08,29,05,58,15.00
2008,08,29,05,59,15.10
2008,08,29,06,00,15.10
2008,08,29,06,01,15.10
2008,08,29,06,02,15.10
2008,08,29,06,03,15.10
2008,08,29,06,04,15.10
2008,08,29,06,05,15.10
2008,08,29,06,06,15.10
2008,08,29,06,07,15.10
2008,08,29,06,08,15.10
2008,08,29,06,09,15.10
2008,08,29,06,10,15.10
2008,08,29,06,11,15.10
2008,08,29,06,12,15.10
2008,08,29,06,13,15.10
2008,08,29,06,14,15.10
2008,08,29,06,15,15.10
2008,08,29,06,16,15.10
2008,08,29,06,17,15.10
2008,08,29,06,18,15.10
2008,08,29,06,19,15.10
2008,08,29,06,20,15.10
2008,08,29,06,21,15.10
2008,08,29,06,22,15.10
2008,08,29,06,23,15.10
2008,08,29,06,24,15.10
2008,08,29,06,25,15.10
2008,08,29,06,26,15.10
2008,08,29,06,27,15.10
2008,08,29,06,28,15.10
2008,08,29,06,29,15.10
2008,08,29,06,30,15.10
2008,08,29,06,31,15.10
2008,08,29,06,32,15.10
2008,08,29,06,33,15.10
2008,08,29,06,34,15.10
2008,08,29,06,35,15.10
2008,08,29,06,36,15.10
2008,08,29,06,37,15.10
2008,08,29,06,38,15.10
2008,08,29,06,39,15.10
2008,08,29,06,40,15.10
2008,08,29,06,41,15.10
2008,08,29,06,42,15.10
2008,08,29,06,43,15.10
2008,08,29,06,44,15.10
2008,08,29,06,45,15.10
2008,08,29,06,46,15.10
2008,08,29,06,47,15.10
2008,08,29,06,48,15.10
2008,08,29,06,49,15.10
2008,08,29,06,50,15.10
2008,08,29,06,51,15.10
2008,08,29,06,52,15.10
2008,08,29,06,53,15.10
2008,08,29,06,54,15.20
2008,08,29,06,55,15.20
2008,08,29,06,56,15.20
2008,08,29,06,57,15.20
2008,08,29,06,58,15.20
2008,08,29,06,59,15.20
2008,08,29,07,00,15.20
2008,08,29,07,01,15.20
2008,08,29,07,02,15.20
2008,08,29,07,03,15.20
2008,08,29,07,04,15.20
2008,08,29,07,05,15.20
2008,08,29,07,06,15.20
2008,08,29,07,07,15.20
2008,08,29,07,08,15.20
2008,08,29,07,09,15.20
2008,08,29,07,10,15.20
2008,08,29,07,11,15.20
2008,08,29,07,12,15.20
2008,08,29,07,13,15.20
2008,08,29,07,14,15.20
2008,08,29,07,15,15.20
2008,08,29,07,16,15.20
2008,08,29,07,17,15.20
2008,08,29,07,18,15.20
2008,08,29,07,19,15.20
2008,08,29,07,20,15.20
2008,08,29,07,21,15.20
2008,08,29,07,22,15.20
2008,08,29,07,23,15.20
2008,08,29,07,24,15.20
2008,08,29,07,25,15.20
2008,08,29,07,26,15.20
2008,08,29,07,27,15.20
2008,08,29,07,28,15.20
2008,08,29,07,29,15.20
2008,08,29,07,30,15.20
2008,08,29,07,31,15.20
2008,08,29,07,32,15.20
2008,08,29,07,33,15.20
2008,08,29,07,34,15.20
2008,08,29,07,35,15.30
2008,08,29,07,36,15.30
2008,08,29,07,37,15.30
2008,08,29,07,38,15.30
2008,08,29,07,39,15.30
2008,08,29,07,40,15.30
2008,08,29,07,41,15.30
2008,08,29,07,42,15.30
2008,08,29,07,43,15.30
2008,08,29,07,44,15.30
2008,08,29,07,45,15.30
2008,08,29,07,46,15.30
2008,08,29,07,47,15.30
2008,08,29,07,48,15.30
2008,08,29,07,49,15.30
2008,08,29,07,50,15.30
2008,08,29,07,51,15.30
2008,08,29,07,52,15.30
2008,08,29,07,53,15.30
2008,08,29,07,54,15.30
2008,08,29,07,55,15.30
2008,08,29,07,56,15.30
2008,08,29,07,57,15.30
2008,08,29,07,58,15.30
2008,08,29,07,59,15.30
2008,08,29,08,00,15.30
2008,08,29,08,01,15.30
2008,08,29,08,02,15.30
2008,08,29,08,03,15.30
2008,08,29,08,04,15.30
2008,08,29,08,05,15.30
2008,08,29,08,06,15.30
2008,08,29,08,07,15.30
2008,08,29,08,08,15.30
2008,08,29,08,09,15.30
2008,08,29,08,10,15.30
2008,08,29,08,11,15.30
2008,08,29,08,12,15.30
2008,08,29,08,13,15.30
2008,08,29,08,14,15.30
2008,08,29,08,15,15.30
2008,08,29,08,16,15.30
2008,08,29,08,17,15.30
2008,08,29,08,18,15.30
2008,08,29,08,19,15.30
2008,08,29,08,20,15.30
2008,08,29,08,21,15.30
2008,08,29,08,22,15.30
2008,08,29,08,23,15.30
2008,08,29,08,24,15.30
2008,08,29,08,25,15.30
2008,08,29,08,26,15.30
2008,08,29,08,27,15.30
2008,08,29,08,28,15.30
2008,08,29,08,29,15.30
2008,08,29,08,30,15.30
2008,08,29,08,31,15.30
2008,08,29,08,32,15.30
2008,08,29,08,33,15.30
2008,08,29,08,34,15.30
2008,08,29,08,35,15.30
2008,08,29,08,36,15.30
2008,08,29,08,37,15.30
2008,08,29,08,38,15.40
2008,08,29,08,39,15.40
2008,08,29,08,40,15.40
2008,08,29,08,41,15.40
2008,08,29,08,42,15.40
2008,08,29,08,43,15.40
2008,08,29,08,44,15.40
2008,08,29,08,45,15.40
2008,08,29,08,46,15.40
2008,08,29,08,47,15.40
2008,08,29,08,48,15.40
2008,08,29,08,49,15.40
2008,08,29,08,50,15.40
2008,08,29,08,51,15.40
2008,08,29,08,52,15.40
2008,08,29,08,53,15.40
2008,08,29,08,54,15.40
2008,08,29,08,55,15.40
2008,08,29,08,56,15.40
2008,08,29,08,57,15.50
2008,08,29,08,58,15.50
2008,08,29,08,59,15.50
2008,08,29,09,00,15.60
2008,08,29,09,01,15.60
2008,08,29,09,02,15.60
2008,08,29,09,03,15.70
2008,08,29,09,04,15.70
2008,08,29,09,05,15.70
2008,08,29,09,06,15.70
2008,08,29,09,07,15.70
2008,08,29,09,08,15.70
2008,08,29,09,09,15.80
2008,08,29,09,10,15.80
2008,08,29,09,11,15.80
2008,08,29,09,12,15.80
2008,08,29,09,13,15.80
2008,08,29,09,14,15.80
2008,08,29,09,15,15.90
2008,08,29,09,16,15.90
2008,08,29,09,17,16.00
2008,08,29,09,18,16.10
2008,08,29,09,19,16.10
2008,08,29,09,20,16.10
2008,08,29,09,21,16.10
2008,08,29,09,22,16.10
2008,08,29,09,23,16.10
2008,08,29,09,24,16.20
2008,08,29,09,25,16.20
2008,08,29,09,26,16.30
2008,08,29,09,27,16.40
2008,08,29,09,28,16.40
2008,08,29,09,29,16.50
2008,08,29,09,30,16.60
2008,08,29,09,31,16.70
2008,08,29,09,32,16.70
2008,08,29,09,33,16.70
2008,08,29,09,34,16.80
2008,08,29,09,35,16.80
2008,08,29,09,36,16.90
2008,08,29,09,37,17.00
2008,08,29,09,38,17.10
2008,08,29,09,39,17.10
2008,08,29,09,40,17.20
2008,08,29,09,41,17.20
2008,08,29,09,42,17.30
2008,08,29,09,43,17.30
2008,08,29,09,44,17.40
2008,08,29,09,45,17.40
2008,08,29,09,46,17.40
2008,08,29,09,47,17.50
2008,08,29,09,48,17.50
2008,08,29,09,49,17.50
2008,08,29,09,50,17.60
2008,08,29,09,51,17.60
2008,08,29,09,52,17.70
2008,08,29,09,53,17.80
2008,08,29,09,54,17.80
2008,08,29,09,55,17.90
2008,08,29,09,56,17.90
2008,08,29,09,57,17.90
2008,08,29,09,58,17.90
2008,08,29,09,59,17.90
2008,08,29,10,00,18.00
2008,08,29,10,01,18.10
2008,08,29,10,02,18.10
2008,08,29,10,03,18.10
2008,08,29,10,04,18.10
2008,08,29,10,05,18.20
2008,08,29,10,06,18.20
2008,08,29,10,07,18.20
2008,08,29,10,08,18.20
2008,08,29,10,09,18.20
2008,08,29,10,10,18.20
2008,08,29,10,11,18.20
2008,08,29,10,12,18.20
2008,08,29,10,13,18.30
2008,08,29,10,14,18.30
2008,08,29,10,15,18.30
2008,08,29,10,16,18.30
2008,08,29,10,17,18.40
2008,08,29,10,18,18.40
2008,08,29,10,19,18.40
2008,08,29,10,20,18.40
2008,08,29,10,21,18.40
2008,08,29,10,22,18.40
2008,08,29,10,23,18.40
2008,08,29,10,24,18.40
2008,08,29,10,25,18.40
2008,08,29,10,26,18.40
2008,08,29,10,27,18.40
2008,08,29,10,28,18.40
2008,08,29,10,29,18.40
2008,08,29,10,30,18.30
2008,08,29,10,31,18.30
2008,08,29,10,32,18.30
2008,08,29,10,33,18.30
2008,08,29,10,34,18.30
2008,08,29,10,35,18.30
2008,08,29,10,36,18.30
2008,08,29,10,37,18.30
2008,08,29,10,38,18.30
2008,08,29,10,39,18.30
2008,08,29,10,40,18.40
2008,08,29,10,41,18.40
2008,08,29,10,42,18.40
2008,08,29,10,43,18.40
2008,08,29,10,44,18.40
2008,08,29,10,45,18.40
2008,08,29,10,46,18.50
2008,08,29,10,47,18.50
2008,08,29,10,48,18.50
2008,08,29,10,49,18.50
2008,08,29,10,50,18.50
2008,08,29,10,51,18.50
2008,08,29,10,52,18.50
2008,08,29,10,53,18.50
2008,08,29,10,54,18.50
2008,08,29,10,55,18.50
2008,08,29,10,56,18.50
2008,08,29,10,57,18.50
2008,08,29,10,58,18.60
2008,08,29,10,59,18.60
2008,08,29,11,00,18.60
2008,08,29,11,01,18.70
2008,08,29,11,02,18.70
2008,08,29,11,03,18.70
2008,08,29,11,04,18.70
2008,08,29,11,05,18.70
2008,08,29,11,06,18.70
2008,08,29,11,07,18.70
2008,08,29,11,08,18.70
2008,08,29,11,09,18.80
2008,08,29,11,10,18.80
2008,08,29,11,11,18.80
2008,08,29,11,12,18.90
2008,08,29,11,13,18.90
2008,08,29,11,14,18.90
2008,08,29,11,15,18.90
2008,08,29,11,16,18.90
2008,08,29,11,17,19.00
2008,08,29,11,18,19.10
2008,08,29,11,19,19.10
2008,08,29,11,20,19.10
2008,08,29,11,21,19.20
2008,08,29,11,22,19.30
2008,08,29,11,23,19.30
2008,08,29,11,24,19.30
2008,08,29,11,25,19.40
2008,08,29,11,26,19.50
2008,08,29,11,27,19.50
2008,08,29,11,28,19.60
2008,08,29,11,29,19.60
2008,08,29,11,30,19.60
2008,08,29,11,31,19.60
2008,08,29,11,32,19.70
2008,08,29,11,33,19.80
2008,08,29,11,34,19.80
2008,08,29,11,35,19.90
2008,08,29,11,36,19.90
2008,08,29,11,37,20.10
2008,08,29,11,38,20.20
2008,08,29,11,39,20.20
2008,08,29,11,40,20.20
2008,08,29,11,41,20.20
2008,08,29,11,42,20.20
2008,08,29,11,43,20.30
2008,08,29,11,44,20.30
2008,08,29,11,45,20.40
2008,08,29,11,46,20.40
2008,08,29,11,47,20.50
2008,08,29,11,48,20.60
2008,08,29,11,49,20.70
2008,08,29,11,50,20.70
2008,08,29,11,51,20.80
2008,08,29,11,52,20.90
2008,08,29,11,53,21.00
2008,08,29,11,54,21.00
2008,08,29,11,55,21.00
2008,08,29,11,56,21.10
2008,08,29,11,57,21.10
2008,08,29,11,58,21.00
2008,08,29,11,59,21.00
2008,08,29,12,00,21.10
2008,08,29,12,01,21.10
2008,08,29,12,02,21.00
2008,08,29,12,03,20.90
2008,08,29,12,04,20.80
2008,08,29,12,05,20.80
2008,08,29,12,06,20.70
2008,08,29,12,07,20.70
2008,08,29,12,08,20.70
2008,08,29,12,09,20.80
2008,08,29,12,10,20.80
2008,08,29,12,11,20.80
2008,08,29,12,12,20.90
2008,08,29,12,13,20.90
2008,08,29,12,14,20.80
2008,08,29,12,15,20.70
2008,08,29,12,16,20.70
2008,08,29,12,17,20.60
2008,08,29,12,18,20.60
2008,08,29,12,19,20.70
2008,08,29,12,20,20.70
2008,08,29,12,21,20.80
2008,08,29,12,22,20.80
2008,08,29,12,23,20.80
2008,08,29,12,24,20.80
2008,08,29,12,25,20.80
2008,08,29,12,26,20.80
2008,08,29,12,27,20.80
2008,08,29,12,28,20.80
2008,08,29,12,29,20.70
2008,08,29,12,30,20.60
2008,08,29,12,31,20.60
2008,08,29,12,32,20.50
2008,08,29,12,33,20.50
2008,08,29,12,34,20.50
2008,08,29,12,35,20.50
2008,08,29,12,36,20.50
2008,08,29,12,37,20.50
2008,08,29,12,38,20.50
2008,08,29,12,39,20.40
2008,08,29,12,40,20.50
2008,08,29,12,41,20.50
2008,08,29,12,42,20.60
2008,08,29,12,43,20.70
2008,08,29,12,44,20.70
2008,08,29,12,45,20.70
2008,08,29,12,46,20.70
2008,08,29,12,47,20.70
2008,08,29,12,48,20.80
2008,08,29,12,49,20.80
2008,08,29,12,50,20.80
2008,08,29,12,51,20.80
2008,08,29,12,52,20.80
2008,08,29,12,53,20.90
2008,08,29,12,54,20.80
2008,08,29,12,55,20.90
2008,08,29,12,56,20.80
2008,08,29,12,57,20.80
2008,08,29,12,58,20.80
2008,08,29,12,59,20.80
2008,08,29,13,00,20.80
2008,08,29,13,01,20.70
2008,08,29,13,02,20.60
2008,08,29,13,03,20.50
2008,08,29,13,04,20.50
2008,08,29,13,05,20.50
2008,08,29,13,06,20.50
2008,08,29,13,07,20.40
2008,08,29,13,08,20.40
2008,08,29,13,09,20.30
2008,08,29,13,10,20.20
2008,08,29,13,11,20.20
2008,08,29,13,12,20.20
2008,08,29,13,13,20.20
2008,08,29,13,14,20.20
2008,08,29,13,15,20.20
2008,08,29,13,16,20.20
2008,08,29,13,17,20.10
2008,08,29,13,18,19.90
2008,08,29,13,19,19.90
2008,08,29,13,20,19.90
2008,08,29,13,21,19.90
2008,08,29,13,22,19.90
2008,08,29,13,23,19.90
2008,08,29,13,24,19.90
2008,08,29,13,25,19.90
2008,08,29,13,26,19.90
2008,08,29,13,27,19.90
2008,08,29,13,28,19.90
2008,08,29,13,29,19.90
2008,08,29,13,30,19.90
2008,08,29,13,31,19.90
2008,08,29,13,32,19.90
2008,08,29,13,33,19.90
2008,08,29,13,34,19.90
2008,08,29,13,35,19.90
2008,08,29,13,36,19.90
2008,08,29,13,37,19.90
2008,08,29,13,38,19.90
2008,08,29,13,39,19.90
2008,08,29,13,40,19.80
2008,08,29,13,41,19.80
2008,08,29,13,42,19.80
2008,08,29,13,43,19.80
2008,08,29,13,44,19.80
2008,08,29,13,45,19.90
2008,08,29,13,46,19.90
2008,08,29,13,47,19.90
2008,08,29,13,48,19.90
2008,08,29,13,49,19.90
2008,08,29,13,50,19.90
2008,08,29,13,51,19.90
2008,08,29,13,52,19.90
2008,08,29,13,53,19.90
2008,08,29,13,54,20.00
2008,08,29,13,55,20.10
2008,08,29,13,56,20.10
2008,08,29,13,57,20.20
2008,08,29,13,58,20.20
2008,08,29,13,59,20.20
2008,08,29,14,00,20.20
2008,08,29,14,01,20.20
2008,08,29,14,02,20.20
2008,08,29,14,03,20.00
2008,08,29,14,04,19.90
2008,08,29,14,05,19.80
2008,08,29,14,06,19.80
2008,08,29,14,07,19.80
2008,08,29,14,08,19.70
2008,08,29,14,09,19.50
2008,08,29,14,10,19.40
2008,08,29,14,11,19.30
2008,08,29,14,12,19.20
2008,08,29,14,13,19.10
2008,08,29,14,14,19.10
2008,08,29,14,15,19.10
2008,08,29,14,16,19.10
2008,08,29,14,17,19.10
2008,08,29,14,18,19.10
2008,08,29,14,19,19.10
2008,08,29,14,20,19.10
2008,08,29,14,21,19.10
2008,08,29,14,22,19.10
2008,08,29,14,23,19.10
2008,08,29,14,24,19.00
2008,08,29,14,25,19.00
2008,08,29,14,26,19.10
2008,08,29,14,27,19.10
2008,08,29,14,28,19.10
2008,08,29,14,29,19.10
2008,08,29,14,30,18.90
2008,08,29,14,31,19.00
2008,08,29,14,32,19.10
2008,08,29,14,33,19.00
2008,08,29,14,34,18.90
2008,08,29,14,35,19.00
2008,08,29,14,36,19.10
2008,08,29,14,37,19.10
2008,08,29,14,38,19.10
2008,08,29,14,39,19.00
2008,08,29,14,40,18.90
2008,08,29,14,41,18.90
2008,08,29,14,42,18.90
2008,08,29,14,43,18.90
2008,08,29,14,44,18.90
2008,08,29,14,45,18.90
2008,08,29,14,46,18.80
2008,08,29,14,47,18.80
2008,08,29,14,48,18.90
2008,08,29,14,49,18.90
2008,08,29,14,50,18.90
2008,08,29,14,51,18.90
2008,08,29,14,52,18.90
2008,08,29,14,53,18.90
2008,08,29,14,54,18.90
2008,08,29,14,55,18.90
2008,08,29,14,56,18.90
2008,08,29,14,57,18.90
2008,08,29,14,58,19.10
2008,08,29,14,59,19.10
2008,08,29,15,00,19.20
2008,08,29,15,01,19.30
2008,08,29,15,02,19.30
2008,08,29,15,03,19.20
2008,08,29,15,04,19.20
2008,08,29,15,05,19.20
2008,08,29,15,06,19.10
2008,08,29,15,07,19.10
2008,08,29,15,08,19.00
2008,08,29,15,09,19.10
2008,08,29,15,10,19.10
2008,08,29,15,11,19.10
2008,08,29,15,12,19.10
2008,08,29,15,13,19.10
2008,08,29,15,14,19.00
2008,08,29,15,15,19.00
2008,08,29,15,16,19.10
2008,08,29,15,17,19.10
2008,08,29,15,18,19.10
2008,08,29,15,19,19.20
2008,08,29,15,20,19.20
2008,08,29,15,21,19.30
2008,08,29,15,22,19.30
2008,08,29,15,23,19.30
2008,08,29,15,24,19.30
2008,08,29,15,25,19.40
2008,08,29,15,26,19.50
2008,08,29,15,27,19.50
2008,08,29,15,28,19.40
2008,08,29,15,29,19.30
2008,08,29,15,30,19.40
2008,08,29,15,31,19.30
2008,08,29,15,32,19.30
2008,08,29,15,33,19.30
2008,08,29,15,34,19.20
2008,08,29,15,35,19.10
2008,08,29,15,36,19.10
2008,08,29,15,37,19.10
2008,08,29,15,38,19.00
2008,08,29,15,39,18.90
2008,08,29,15,40,18.90
2008,08,29,15,41,18.90
2008,08,29,15,42,18.90
2008,08,29,15,43,18.90
2008,08,29,15,44,18.80
2008,08,29,15,45,18.80
2008,08,29,15,46,18.80
2008,08,29,15,47,18.90
2008,08,29,15,48,18.90
2008,08,29,15,49,18.90
2008,08,29,15,50,18.90
2008,08,29,15,51,18.90
2008,08,29,15,52,18.90
2008,08,29,15,53,18.90
2008,08,29,15,54,18.90
2008,08,29,15,55,18.90
2008,08,29,15,56,18.90
2008,08,29,15,57,18.90
2008,08,29,15,58,18.90
2008,08,29,15,59,18.90
2008,08,29,16,00,18.80
2008,08,29,16,01,18.70
2008,08,29,16,02,18.70
2008,08,29,16,03,18.60
2008,08,29,16,04,18.60
2008,08,29,16,05,18.60
2008,08,29,16,06,18.60
2008,08,29,16,07,18.70
2008,08,29,16,08,18.70
2008,08,29,16,09,18.80
2008,08,29,16,10,18.80
2008,08,29,16,11,18.80
2008,08,29,16,12,18.80
2008,08,29,16,13,18.80
2008,08,29,16,14,18.80
2008,08,29,16,15,18.80
2008,08,29,16,16,18.90
2008,08,29,16,17,18.90
2008,08,29,16,18,18.90
2008,08,29,16,19,18.90
2008,08,29,16,20,18.90
2008,08,29,16,21,18.90
2008,08,29,16,22,18.90
2008,08,29,16,23,19.00
2008,08,29,16,24,19.10
2008,08,29,16,25,19.10
2008,08,29,16,26,19.10
2008,08,29,16,27,18.90
2008,08,29,16,28,18.90
2008,08,29,16,29,18.90
2008,08,29,16,30,18.90
2008,08,29,16,31,18.90
2008,08,29,16,32,18.90
2008,08,29,16,33,18.90
2008,08,29,16,34,18.90
2008,08,29,16,35,18.90
2008,08,29,16,36,18.90
2008,08,29,16,37,18.90
2008,08,29,16,38,19.00
2008,08,29,16,39,19.10
2008,08,29,16,40,19.10
2008,08,29,16,41,19.10
2008,08,29,16,42,19.10
2008,08,29,16,43,19.10
2008,08,29,16,44,19.10
2008,08,29,16,45,19.10
2008,08,29,16,46,19.10
2008,08,29,16,47,19.10
2008,08,29,16,48,19.00
2008,08,29,16,49,18.90
2008,08,29,16,50,18.90
2008,08,29,16,51,18.80
2008,08,29,16,52,18.80
2008,08,29,16,53,18.70
2008,08,29,16,54,18.60
2008,08,29,16,55,18.60
2008,08,29,16,56,18.60
2008,08,29,16,57,18.60
2008,08,29,16,58,18.70
2008,08,29,16,59,18.70
2008,08,29,17,00,18.90
2008,08,29,17,01,18.90
2008,08,29,17,02,19.00
2008,08,29,17,03,19.10
2008,08,29,17,04,19.10
2008,08,29,17,05,19.10
2008,08,29,17,06,19.10
2008,08,29,17,07,19.00
2008,08,29,17,08,18.90
2008,08,29,17,09,18.90
2008,08,29,17,10,18.90
2008,08,29,17,11,18.90
2008,08,29,17,12,18.80
2008,08,29,17,13,18.80
2008,08,29,17,14,18.80
2008,08,29,17,15,18.80
2008,08,29,17,16,18.80
2008,08,29,17,17,18.80
2008,08,29,17,18,18.70
2008,08,29,17,19,18.60